Regional Weather Roundup
Issued by NWS

Home | Current Version | Previous Version | Text Only | Print | Product List | Glossary Off
Versions: 1 2 3 4 5 6 7 8 9 10 11 12 13 14 15 16 17 18 19 20 21 22 23 24 25 26 27 28 29 30 31 32 33 34 35 36 37 38 39 40 41 42 43 44 45 46 47 48 49 50

000
ASUS43 KDTX 210210
RWRMI
MICHIGAN HOURLY REGIONAL WEATHER ROUNDUP
NATIONAL WEATHER SERVICE DETROIT/PONTIAC MI
900 PM EST SAT JAN 20 2018

NOTE: "FAIR" INDICATES FEW OR NO CLOUDS BELOW 12,000 FEET WITH NO
SIGNIFICANT WEATHER AND/OR OBSTRUCTION TO VISIBILITY.

MIZ047>049-052>055-059>063-066>070-074>076-081>083-210300-
SOUTHEAST LOWER MICHIGAN

CITY           SKY/WX    TMP DP  RH WIND       PRES   REMARKS
ADRIAN         FAIR      33  29  85 SW3       30.05R
ALMA           FAIR      37  31  80 SW7       29.99S WCI  31
ANN ARBOR      FAIR      29  28  96 S3        30.02F
BAD AXE        FAIR      34  30  85 SW5       29.97F WCI  30
CARO           FAIR      32  29  89 SW3       29.98R
DETROIT CITY   FAIR      36  30  79 SW9       30.03S WCI  29
DETROIT        FAIR      33  29  85 S9        30.04S WCI  25
FLINT          FAIR      35  28  75 SW7       30.01S WCI  29
GROSSE ILE     FAIR      31  30  94 S5        30.04S WCI  27
HILLSDALE      CLOUDY    34  32  93 SW6       30.02R WCI  29
HOWELL         FAIR      34  30  86 SW5       30.00F WCI  30

CITY           SKY/WX    TMP DP  RH WIND       PRES   REMARKS
JACKSON        FAIR      30  27  88 SW6       30.02R WCI  24
LAMBERTVILLE   FAIR      36  32  84 SW6       30.05S WCI  31
LANSING        FAIR      32  28  85 SW6       30.01S WCI  26
LAPEER         FAIR      33  28  81 SW3       30.00R
MONROE         FAIR      34  30  86 SW6       30.04S WCI  29
MT. CLEMENS    PTCLDY    36  28  70 SW8       30.01F WCI  30
PONTIAC        MOCLDY    34  29  82 SW5       29.99S WCI  30
PORT HOPE        N/A     37  30  75 SW5       29.95F WCI  33
PORT HURON     FAIR      30  27  86 CALM      30.02S
TRI CITIES     FAIR      37  31  78 SW8       29.98S WCI  31
MIDLAND        FAIR      35  31  85 SW5       29.97S WCI  31
TROY           FAIR      36  30  77 SW7       30.03S WCI  31
SAGINAW HB     FAIR      34  30  86 SW7       29.98S WCI  28
$$
MIZ043>046-050>051-056>058-064>065-071>073-077>080-210300-
SOUTHWEST LOWER MICHIGAN

CITY           SKY/WX    TMP DP  RH WIND       PRES   REMARKS
BATTLE CREEK   FAIR      33  30  88 S9        30.01S WCI  25
BENTON HARBOR  CLOUDY    38  33  82 S7        30.01R WCI  33
BIG RAPIDS     FAIR      36  29  77 S3        29.97S
COLDWATER      CLOUDY    37  35  91 SW5       30.02S WCI  33
FREMONT        FAIR      34  28  79 S3        29.98S
HOLLAND        FAIR      33  28  81 S6        30.00R WCI  28
GRAND RAPIDS   FAIR      32  27  81 S5        30.00R WCI  27
IONIA          FAIR      32  29  87 SW6       29.99R WCI  27
KALAMAZOO      CLOUDY    35  31  85 S8        30.02S WCI  29
LUDINGTON      FAIR      30  30  99 CALM      29.97S FOG
MARSHALL       FAIR      32  31  94 S3        30.01S
MOUNT PLEASANT FAIR      38  31  75 SW7       29.98R WCI  33
MUSKEGON       MOCLDY    38  30  73 S9        29.99S WCI  31
SOUTH HAVEN    CLOUDY    37  32  83 S6        30.01R WCI  32
$$
MIZ016>042-210300-
NORTHERN LOWER MICHIGAN

CITY           SKY/WX    TMP DP  RH WIND       PRES   REMARKS
ALPENA         CLOUDY    35  30  82 CALM      29.96S
BEAVER ISLAND  CLOUDY    33  31  94 CALM      29.95S
BELLAIRE       FAIR      31  31 100 CALM      29.97R
CADILLAC       FAIR      35  30  82 CALM      29.95R
CHARLEVOIX     FAIR      32  32 100 CALM      29.99R
FRANKFORT      FAIR      37  34  90 CALM      29.98R
GAYLORD        CLOUDY    32  30  92 CALM      29.93R
GRAYLING       FAIR      31  28  88 CALM      29.95R
HARBOR SPRINGS CLOUDY    32  32  99 CALM      29.96R
HOUGHTON LAKE  FAIR      31  27  85 W3        29.95R
MANISTEE       FAIR      30  28  92 CALM      29.98R
OSCODA         FAIR      30  27  86 CALM      29.95F
PELLSTON       CLOUDY    32  30  92 CALM      29.96R
ROGERS CITY    CLOUDY    34  30  83 SW5       29.97R WCI  30
TRAVERSE CITY  MOCLDY    33  30  88 CALM      29.96R
$$
MIZ007>008-015-210300-
EASTERN UPPER MICHIGAN

CITY           SKY/WX    TMP DP  RH WIND       PRES   REMARKS
KINROSS        CLOUDY    34  29  82 S5        29.94R WCI  30
MACKINAC ISLAN CLOUDY    34  31  89 SW5       29.95R WCI  30
NEWBERRY       CLOUDY    32  31  98 S3        29.91F
S. S. MARIE    CLOUDY    38  31  76 SW3       29.92F
MUNISING         N/A     35  31  85 SW7       29.91R WCI  29
$$
MIZ004>006-011>014-085-210300-
CENTRAL UPPER MICHIGAN

CITY           SKY/WX    TMP DP  RH WIND       PRES   REMARKS
ESCANABA       MOCLDY    34  30  85 S6        29.94R WCI  29
MENOMINEE      FAIR      36  30  79 SW5       29.95S WCI  32
SAWYER-GWINN   PTCLDY    30  27  86 CALM      29.90R
$$
MIZ001>003-009>011-084-210300-
WESTERN UPPER MICHIGAN

CITY           SKY/WX    TMP DP  RH WIND       PRES   REMARKS
IRON MOUNTAIN  FAIR      30  27  88 CALM      29.90R
HOUGHTON       FAIR      29  25  85 CALM      29.87S
COPPER HARBOR    N/A     34  30  85 SW3       29.90R
IRONWOOD       FAIR      36  29  75 SW6       29.89S WCI  31
$$

ABBREVIATIONS USED IN REMARKS
   TC - TEMPERATURE IN CELSIUS
  WCI - WIND CHILL INDEX
   HX - HEAT INDEX
  VSB - VISIBILITY





USA.gov is the U.S. government's official web portal to all federal, state and local government web resources and services.